Location: Ciserano
(45.5833°N, 9.6000°E)
Time: 11:44:33
(UTC+00:00)

Cosmos 923 Rocket - Pass Details

Date: 29 November 2020
Orbit: 757 x 786 km, 74.0° (Epoch: 25 January)

Event Time Altitude Azimuth Distance (km) Brightness Sun altitude
Exits shadow 03:53:57 53° 20° (NNE) 952 4.4 -28.3°
Maximum altitude 03:54:53 63° 66° (ENE) 870 4.4 -28.1°
Drops below altitude 10° 04:00:08 10° 147° (SSE) 2,329 6.9 -27.2°
Sets 04:02:33 0° 151° (SSE) 3,257 7.7 -26.8°
